,,,PA_Meas_PMT16A,,PR_Meas_QMR101_102,,RH_Meas_QMH101,,SR_Meas_QMS101,,TA_Meas_QMH101,,GenWind,,GenWind,
date,time,status,PA,status,PR,status,RH,status,SR,status,TA,status,DirAvg,status,SpdAvg,
2009-06-27, 00:00:04,VALID,1009.79,VALID,0,VALID,90.2127,VALID,0,VALID,23.3026,VALID,85,VALID,1.17109,
2009-06-27, 00:01:04,VALID,1009.79,VALID,0,VALID,90.1974,VALID,0,VALID,23.3026,VALID,82,VALID,1.04766,
2009-06-27, 00:02:04,VALID,1009.77,VALID,0,VALID,90.2203,VALID,0,VALID,23.3433,VALID,76,VALID,0.689844,
2009-06-27, 00:03:04,VALID,1009.76,VALID,0,VALID,90.2279,VALID,0,VALID,23.3238,VALID,97,VALID,1.075,
2009-06-27, 00:04:04,VALID,1009.75,VALID,0,VALID,90.2355,VALID,0,VALID,23.3238,VALID,85,VALID,1.52852,
2009-06-27, 00:05:04,VALID,1009.74,VALID,0,VALID,90.2584,VALID,0,VALID,23.3433,VALID,71,VALID,1.28633,
2009-06-27, 00:06:04,VALID,1009.71,VALID,0,VALID,90.266,VALID,0,VALID,23.3238,VALID,89,VALID,1.11914,
2009-06-27, 00:07:04,VALID,1009.68,VALID,0,VALID,90.2584,VALID,0,VALID,23.322,VALID,88,VALID,0.5625,
2009-06-27, 00:08:04,VALID,1009.65,VALID,0,VALID,90.2889,VALID,0,VALID,23.3026,VALID,112,VALID,0.944922,
2009-06-27, 00:09:04,VALID,1009.64,VALID,0,VALID,90.3423,VALID,0,VALID,23.3026,VALID,99,VALID,0.281641,
2009-06-27, 00:10:04,VALID,1009.62,VALID,0,VALID,90.3423,VALID,0,VALID,23.3238,VALID,99,VALID,0,
2009-06-27, 00:11:04,VALID,1009.59,VALID,0,VALID,90.3804,VALID,0,VALID,23.2831,VALID,99,VALID,0,
2009-06-27, 00:12:04,VALID,1009.56,VALID,0,VALID,90.4186,VALID,0,VALID,23.2831,VALID,100,VALID,0.00976563,
2009-06-27, 00:13:04,VALID,1009.54,VALID,0,VALID,90.4491,VALID,0,VALID,23.3043,VALID,116,VALID,0.350781,
2009-06-27, 00:14:04,VALID,1009.53,VALID,0,VALID,90.4719,VALID,0,VALID,23.2831,VALID,145,VALID,0.858984,
2009-06-27, 00:15:04,VALID,1009.53,VALID,0,VALID,90.4796,VALID,0,VALID,23.2848,VALID,145,VALID,0.392578,
2009-06-27, 00:16:04,VALID,1009.52,VALID,0,VALID,90.5024,VALID,0,VALID,23.2441,VALID,145,VALID,0.575391,
2009-06-27, 00:17:04,VALID,1009.48,VALID,0,VALID,90.5406,VALID,0,VALID,23.2441,VALID,145,VALID,0.605469,
2009-06-27, 00:18:04,VALID,1009.49,VALID,0,VALID,90.5634,VALID,0,VALID,23.2441,VALID,159,VALID,0.492188,
2009-06-27, 00:19:04,VALID,1009.5,VALID,0,VALID,90.6016,VALID,0,VALID,23.2441,VALID,160,VALID,0.654688,
2009-06-27, 00:20:04,VALID,1009.51,VALID,0,VALID,90.6321,VALID,0,VALID,23.2654,VALID,153,VALID,0.619141,
2009-06-27, 00:21:04,VALID,1009.51,VALID,0,VALID,90.6473,VALID,0,VALID,23.2246,VALID,135,VALID,0.54375,
2009-06-27, 00:22:04,VALID,1009.51,VALID,0,VALID,90.655,VALID,0,VALID,23.2654,VALID,141,VALID,0.720312,
2009-06-27, 00:23:04,VALID,1009.5,VALID,0,VALID,90.6855,VALID,0,VALID,23.2246,VALID,142,VALID,0.45625,
2009-06-27, 00:24:04,VALID,1009.5,VALID,0,VALID,90.7007,VALID,0,VALID,23.2246,VALID,131,VALID,0.905078,
2009-06-27, 00:25:04,VALID,1009.5,VALID,0,VALID,90.716,VALID,0.105969,VALID,23.2441,VALID,131,VALID,0.269922,
2009-06-27, 00:26:04,VALID,1009.5,VALID,0,VALID,90.7083,VALID,0,VALID,23.2441,VALID,131,VALID,0.582422,
2009-06-27, 00:27:04,VALID,1009.52,VALID,0,VALID,90.7541,VALID,0,VALID,23.2654,VALID,100,VALID,0.560547,
2009-06-27, 00:28:04,VALID,1009.52,VALID,0,VALID,90.7617,VALID,0,VALID,23.2636,VALID,82,VALID,0.88125,
2009-06-27, 00:29:04,VALID,1009.52,VALID,0,VALID,90.7388,VALID,0.105969,VALID,23.2831,VALID,104,VALID,0.998828,
2009-06-27, 00:30:04,VALID,1009.52,VALID,0,VALID,90.7083,VALID,0,VALID,23.3026,VALID,112,VALID,0.965625,
2009-06-27, 00:31:04,VALID,1009.51,VALID,0,VALID,90.6702,VALID,0.105969,VALID,23.3026,VALID,100,VALID,0.986719,
2009-06-27, 00:32:04,VALID,1009.51,VALID,0,VALID,90.6245,VALID,0.105969,VALID,23.322,VALID,115,VALID,0.692969,
2009-06-27, 00:33:04,VALID,1009.49,VALID,0,VALID,90.5482,VALID,0,VALID,23.322,VALID,107,VALID,0.502344,
2009-06-27, 00:34:04,VALID,1009.48,VALID,0,VALID,90.5177,VALID,0,VALID,23.322,VALID,111,VALID,0.504687,
2009-06-27, 00:35:04,VALID,1009.47,VALID,0,VALID,90.4567,VALID,0,VALID,23.322,VALID,113,VALID,0.925,
2009-06-27, 00:36:04,VALID,1009.47,VALID,0,VALID,90.4186,VALID,0,VALID,23.3415,VALID,122,VALID,0.799609,
2009-06-27, 00:37:04,VALID,1009.45,VALID,0,VALID,90.3576,VALID,0,VALID,23.322,VALID,143,VALID,0.879297,
2009-06-27, 00:38:04,VALID,1009.41,VALID,0,VALID,90.2889,VALID,0.105969,VALID,23.322,VALID,123,VALID,0.887109,
2009-06-27, 00:39:04,VALID,1009.45,VALID,0,VALID,90.2127,VALID,0,VALID,23.322,VALID,109,VALID,0.809375,
2009-06-27, 00:40:04,VALID,1009.4,VALID,0,VALID,90.1974,VALID,0,VALID,23.3026,VALID,120,VALID,0.560547,
2009-06-27, 00:41:04,VALID,1009.4,VALID,0,VALID,90.2127,VALID,0,VALID,23.3026,VALID,116,VALID,0.614453,
2009-06-27, 00:42:04,VALID,1009.4,VALID,0,VALID,90.1517,VALID,0.105969,VALID,23.3026,VALID,70,VALID,0.455469,
2009-06-27, 00:43:04,VALID,1009.41,VALID,0,VALID,90.205,VALID,0.105969,VALID,23.3026,VALID,68,VALID,0.561719,
2009-06-27, 00:44:04,VALID,1009.44,VALID,0,VALID,90.1669,VALID,0,VALID,23.2831,VALID,55,VALID,0.715625,
2009-06-27, 00:45:04,VALID,1009.45,VALID,0,VALID,90.144,VALID,0,VALID,23.2459,VALID,49,VALID,1.17148,
2009-06-27, 00:46:04,VALID,1009.48,VALID,0,VALID,90.1212,VALID,0,VALID,23.2476,VALID,73,VALID,1.29609,
2009-06-27, 00:47:04,VALID,1009.49,VALID,0,VALID,90.1593,VALID,0,VALID,23.2087,VALID,62,VALID,0.811328,
2009-06-27, 00:48:04,VALID,1009.5,VALID,0,VALID,90.1745,VALID,0,VALID,23.1892,VALID,57,VALID,1.1418,
2009-06-27, 00:49:04,VALID,1009.49,VALID,0,VALID,90.1593,VALID,0,VALID,23.1485,VALID,46,VALID,0.938672,
2009-06-27, 00:50:04,VALID,1009.47,VALID,0,VALID,90.2203,VALID,0,VALID,23.129,VALID,340,VALID,0.305078,
2009-06-27, 00:51:04,VALID,1009.45,VALID,0,VALID,90.2508,VALID,0,VALID,23.1307,VALID,41,VALID,0.345703,
2009-06-27, 00:52:04,VALID,1009.41,VALID,0,VALID,90.2813,VALID,0,VALID,23.09,VALID,41,VALID,0.0179687,
2009-06-27, 00:53:04,VALID,1009.38,VALID,0,VALID,90.3576,VALID,0,VALID,23.1112,VALID,29,VALID,0.187891,
2009-06-27, 00:54:04,VALID,1009.36,VALID,0,VALID,90.4033,VALID,0,VALID,23.0705,VALID,63,VALID,0.523047,
2009-06-27, 00:55:04,VALID,1009.32,VALID,0,VALID,90.4262,VALID,0,VALID,23.0705,VALID,72,VALID,0,
2009-06-27, 00:56:04,VALID,1009.33,VALID,0,VALID,90.4414,VALID,0,VALID,23.0316,VALID,72,VALID,0,
2009-06-27, 00:57:04,VALID,1009.3,VALID,0,VALID,90.4491,VALID,0,VALID,23.0333,VALID,72,VALID,0,
2009-06-27, 00:58:04,VALID,1009.29,VALID,0,VALID,90.4719,VALID,0,VALID,23.0333,VALID,72,VALID,0,
2009-06-27, 00:59:04,VALID,1009.26,VALID,0,VALID,90.4872,VALID,0,VALID,23.0121,VALID,72,VALID,0,
2009-06-27, 01:00:04,VALID,1009.26,VALID,0,VALID,90.4872,VALID,0.105969,VALID,23.0103,VALID,72,VALID,0,
2009-06-27, 01:01:04,VALID,1009.22,VALID,0,VALID,90.5101,VALID,0,VALID,23.0121,VALID,55,VALID,0,
2009-06-27, 01:02:04,VALID,1009.21,VALID,0,VALID,90.5101,VALID,0,VALID,22.9909,VALID,55,VALID,0,
2009-06-27, 01:03:04,VALID,1009.19,VALID,0,VALID,90.5253,VALID,0.105969,VALID,22.9714,VALID,55,VALID,0,
2009-06-27, 01:04:04,VALID,1009.16,VALID,0,VALID,90.5253,VALID,0.105969,VALID,22.9714,VALID,55,VALID,0,
2009-06-27, 01:05:04,VALID,1009.15,VALID,0,VALID,90.5177,VALID,0,VALID,22.9909,VALID,55,VALID,0,
2009-06-27, 01:06:04,VALID,1009.15,VALID,0,VALID,90.5406,VALID,0.105969,VALID,22.9519,VALID,55,VALID,0,
2009-06-27, 01:07:04,VALID,1009.14,VALID,0,VALID,90.5329,VALID,0,VALID,22.9731,VALID,41,VALID,0,
2009-06-27, 01:08:04,VALID,1009.12,VALID,0,VALID,90.5558,VALID,0,VALID,22.9519,VALID,41,VALID,0,
2009-06-27, 01:09:04,VALID,1009.1,VALID,0,VALID,90.5634,VALID,0.105969,VALID,22.9519,VALID,41,VALID,0,
2009-06-27, 01:10:04,VALID,1009.1,VALID,0,VALID,90.5787,VALID,0,VALID,22.9324,VALID,41,VALID,0,
2009-06-27, 01:11:04,VALID,1009.09,VALID,0,VALID,90.6168,VALID,0,VALID,22.9324,VALID,41,VALID,0,
2009-06-27, 01:12:04,VALID,1009.08,VALID,0,VALID,90.6092,VALID,0,VALID,22.9324,VALID,41,VALID,0,
2009-06-27, 01:13:04,VALID,1009.04,VALID,0,VALID,90.6168,VALID,0,VALID,22.9342,VALID,41,VALID,0,
2009-06-27, 01:14:04,VALID,1009.05,VALID,0,VALID,90.6168,VALID,0,VALID,22.9342,VALID,41,VALID,0,
2009-06-27, 01:15:04,VALID,1009.01,VALID,0,VALID,90.6321,VALID,0,VALID,22.8935,VALID,41,VALID,0,
2009-06-27, 01:16:04,VALID,1008.98,VALID,0,VALID,90.6397,VALID,0,VALID,22.9129,VALID,41,VALID,0,
2009-06-27, 01:17:04,VALID,1008.97,VALID,0,VALID,90.6855,VALID,0,VALID,22.9129,VALID,41,VALID,0,
2009-06-27, 01:18:04,VALID,1008.99,VALID,0,VALID,90.7083,VALID,0,VALID,22.9342,VALID,41,VALID,0,
2009-06-27, 01:19:04,VALID,1009,VALID,0,VALID,90.7236,VALID,0,VALID,22.9536,VALID,41,VALID,0,
2009-06-27, 01:20:04,VALID,1009,VALID,0,VALID,90.7541,VALID,0,VALID,22.9324,VALID,41,VALID,0,
2009-06-27, 01:21:04,VALID,1009.02,VALID,0,VALID,90.7617,VALID,0,VALID,22.9731,VALID,41,VALID,0,
2009-06-27, 01:22:04,VALID,1009.01,VALID,0,VALID,90.7922,VALID,0,VALID,22.9519,VALID,41,VALID,0,
2009-06-27, 01:23:04,VALID,1009.04,VALID,0,VALID,90.7922,VALID,0.105969,VALID,22.9324,VALID,41,VALID,0,
2009-06-27, 01:24:04,VALID,1009.03,VALID,0,VALID,90.8151,VALID,0.105969,VALID,22.9536,VALID,41,VALID,0,
2009-06-27, 01:25:04,VALID,1008.99,VALID,0,VALID,90.8151,VALID,0,VALID,22.8935,VALID,41,VALID,0,
2009-06-27, 01:26:04,VALID,1009,VALID,0,VALID,90.7998,VALID,0.105969,VALID,22.874,VALID,41,VALID,0,
2009-06-27, 01:27:04,VALID,1008.98,VALID,0,VALID,90.8227,VALID,0.105969,VALID,22.874,VALID,119,VALID,0,
2009-06-27, 01:28:04,VALID,1008.98,VALID,0,VALID,90.8075,VALID,0,VALID,22.874,VALID,131,VALID,0,
2009-06-27, 01:29:04,VALID,1008.92,VALID,0,VALID,90.8151,VALID,0,VALID,22.8757,VALID,157,VALID,0,
2009-06-27, 01:30:04,VALID,1008.92,VALID,0,VALID,90.7998,VALID,0,VALID,22.8545,VALID,162,VALID,0,
2009-06-27, 01:31:04,VALID,1008.88,VALID,0,VALID,90.838,VALID,0.105969,VALID,22.835,VALID,160,VALID,0.573047,
2009-06-27, 01:32:04,VALID,1008.86,VALID,0,VALID,90.8685,VALID,0,VALID,22.835,VALID,160,VALID,0.534375,
2009-06-27, 01:33:04,VALID,1008.82,VALID,0,VALID,90.8685,VALID,0.105969,VALID,22.8155,VALID,160,VALID,0.328516,
2009-06-27, 01:34:04,VALID,1008.79,VALID,0,VALID,90.8761,VALID,0.105969,VALID,22.8155,VALID,160,VALID,0.075,
2009-06-27, 01:35:04,VALID,1008.81,VALID,0,VALID,90.9295,VALID,0.105969,VALID,22.8155,VALID,159,VALID,0,
2009-06-27, 01:36:04,VALID,1008.77,VALID,0,VALID,90.9524,VALID,0,VALID,22.8155,VALID,137,VALID,0.790625,
2009-06-27, 01:37:04,VALID,1008.74,VALID,0,VALID,90.9676,VALID,0,VALID,22.8155,VALID,128,VALID,0.153906,
2009-06-27, 01:38:04,VALID,1008.73,VALID,0,VALID,90.9905,VALID,0.105969,VALID,22.835,VALID,128,VALID,0,
2009-06-27, 01:39:04,VALID,1008.72,VALID,0,VALID,91.021,VALID,0.105969,VALID,22.835,VALID,128,VALID,0,
2009-06-27, 01:40:04,VALID,1008.71,VALID,0,VALID,91.0286,VALID,0,VALID,22.8155,VALID,128,VALID,0.00546875,
2009-06-27, 01:41:04,VALID,1008.68,VALID,0,VALID,91.0286,VALID,0.105969,VALID,22.835,VALID,128,VALID,0.438281,
2009-06-27, 01:42:04,VALID,1008.66,VALID,0,VALID,91.0362,VALID,0.105969,VALID,22.8545,VALID,107,VALID,0.716016,
2009-06-27, 01:43:04,VALID,1008.66,VALID,0,VALID,90.9752,VALID,0.105969,VALID,22.8545,VALID,107,VALID,0.584375,
2009-06-27, 01:44:04,VALID,1008.69,VALID,0,VALID,90.9142,VALID,0,VALID,22.874,VALID,85,VALID,0.835547,
2009-06-27, 01:45:04,VALID,1008.65,VALID,0,VALID,90.8609,VALID,0,VALID,22.8935,VALID,99,VALID,0.754297,
2009-06-27, 01:46:04,VALID,1008.68,VALID,0,VALID,90.7922,VALID,0,VALID,22.9129,VALID,115,VALID,1.06445,
2009-06-27, 01:47:04,VALID,1008.67,VALID,0,VALID,90.7388,VALID,0,VALID,22.9129,VALID,98,VALID,0.332422,
2009-06-27, 01:48:04,VALID,1008.68,VALID,0,VALID,90.716,VALID,0.105969,VALID,22.9324,VALID,94,VALID,0.283594,
2009-06-27, 01:49:04,VALID,1008.64,VALID,0,VALID,90.6855,VALID,0,VALID,22.9129,VALID,74,VALID,0.287891,
2009-06-27, 01:50:04,VALID,1008.65,VALID,0,VALID,90.6778,VALID,0,VALID,22.9147,VALID,66,VALID,0.028125,
2009-06-27, 01:51:04,VALID,1008.64,VALID,0,VALID,90.6473,VALID,0,VALID,22.8935,VALID,66,VALID,0.172656,
2009-06-27, 01:52:04,VALID,1008.63,VALID,0,VALID,90.6321,VALID,0,VALID,22.8545,VALID,88,VALID,0.878516,
2009-06-27, 01:53:04,VALID,1008.61,VALID,0,VALID,90.6245,VALID,0,VALID,22.874,VALID,84,VALID,0.501172,
2009-06-27, 01:54:04,VALID,1008.57,VALID,0,VALID,90.6321,VALID,0,VALID,22.8545,VALID,84,VALID,0.598437,
2009-06-27, 01:55:04,VALID,1008.56,VALID,0,VALID,90.6245,VALID,0.105969,VALID,22.8545,VALID,86,VALID,0.615234,
2009-06-27, 01:56:04,VALID,1008.54,VALID,0,VALID,90.6016,VALID,0,VALID,22.8545,VALID,104,VALID,0.613281,
2009-06-27, 01:57:04,VALID,1008.51,VALID,0,VALID,90.6168,VALID,0,VALID,22.8545,VALID,106,VALID,0.455078,
2009-06-27, 01:58:04,VALID,1008.49,VALID,0,VALID,90.6321,VALID,0,VALID,22.8757,VALID,106,VALID,0.329688,
2009-06-27, 01:59:04,VALID,1008.46,VALID,0,VALID,90.6702,VALID,0,VALID,22.835,VALID,106,VALID,0.323828,
2009-06-27, 02:00:04,VALID,1008.42,VALID,0,VALID,90.655,VALID,0,VALID,22.8545,VALID,106,VALID,0.134375,
2009-06-27, 02:01:04,VALID,1008.45,VALID,0,VALID,90.6702,VALID,0,VALID,22.835,VALID,106,VALID,0,
2009-06-27, 02:02:04,VALID,1008.45,VALID,0,VALID,90.6778,VALID,0,VALID,22.835,VALID,106,VALID,0,
2009-06-27, 02:03:04,VALID,1008.45,VALID,0,VALID,90.6931,VALID,0,VALID,22.8155,VALID,78,VALID,0.132031,
2009-06-27, 02:04:04,VALID,1008.44,VALID,0,VALID,90.6931,VALID,0,VALID,22.8173,VALID,69,VALID,0.26875,
2009-06-27, 02:05:04,VALID,1008.45,VALID,0,VALID,90.7083,VALID,0,VALID,22.7961,VALID,61,VALID,0.300391,
2009-06-27, 02:06:04,VALID,1008.44,VALID,0,VALID,90.7312,VALID,0,VALID,22.7961,VALID,59,VALID,0.326172,
2009-06-27, 02:07:04,VALID,1008.46,VALID,0,VALID,90.7617,VALID,0,VALID,22.7978,VALID,49,VALID,0.207813,
2009-06-27, 02:08:04,VALID,1008.42,VALID,0,VALID,90.777,VALID,0,VALID,22.7571,VALID,49,VALID,0.162891,
2009-06-27, 02:09:04,VALID,1008.42,VALID,0,VALID,90.7846,VALID,0,VALID,22.7376,VALID,49,VALID,0.255078,
2009-06-27, 02:10:04,VALID,1008.45,VALID,0,VALID,90.8227,VALID,0,VALID,22.7588,VALID,49,VALID,0.0941406,
2009-06-27, 02:11:04,VALID,1008.46,VALID,0,VALID,90.8532,VALID,0,VALID,22.7376,VALID,49,VALID,0.275781,
2009-06-27, 02:12:04,VALID,1008.48,VALID,0,VALID,90.8609,VALID,0,VALID,22.7376,VALID,49,VALID,0.171484,
2009-06-27, 02:13:04,VALID,1008.48,VALID,0,VALID,90.8914,VALID,0,VALID,22.7182,VALID,49,VALID,0,
2009-06-27, 02:14:04,VALID,1008.52,VALID,0,VALID,90.9142,VALID,0,VALID,22.7182,VALID,49,VALID,0,
2009-06-27, 02:15:04,VALID,1008.51,VALID,0,VALID,90.9295,VALID,0,VALID,22.7004,VALID,49,VALID,0,
2009-06-27, 02:16:04,VALID,1008.53,VALID,0,VALID,90.96,VALID,0,VALID,22.7004,VALID,49,VALID,0.0652344,
2009-06-27, 02:17:04,VALID,1008.52,VALID,0,VALID,90.9752,VALID,0,VALID,22.6809,VALID,49,VALID,0,
2009-06-27, 02:18:04,VALID,1008.55,VALID,0,VALID,90.9981,VALID,0,VALID,22.6614,VALID,49,VALID,0.139844,
2009-06-27, 02:19:04,VALID,1008.54,VALID,0,VALID,91.0286,VALID,0,VALID,22.642,VALID,49,VALID,0.112109,
2009-06-27, 02:20:04,VALID,1008.55,VALID,0,VALID,91.0515,VALID,0,VALID,22.642,VALID,49,VALID,0,
2009-06-27, 02:21:04,VALID,1008.58,VALID,0,VALID,91.082,VALID,0,VALID,22.642,VALID,49,VALID,0,
2009-06-27, 02:22:04,VALID,1008.56,VALID,0,VALID,91.1049,VALID,0,VALID,22.6225,VALID,49,VALID,0,
2009-06-27, 02:23:04,VALID,1008.56,VALID,0,VALID,91.1278,VALID,0,VALID,22.6208,VALID,47,VALID,0,
2009-06-27, 02:24:04,VALID,1008.59,VALID,0,VALID,91.1278,VALID,0,VALID,22.642,VALID,44,VALID,0,
2009-06-27, 02:25:04,VALID,1008.57,VALID,0,VALID,91.1354,VALID,0,VALID,22.6225,VALID,44,VALID,0,
2009-06-27, 02:26:04,VALID,1008.57,VALID,0,VALID,91.1506,VALID,0,VALID,22.603,VALID,44,VALID,0,
2009-06-27, 02:27:04,VALID,1008.58,VALID,0,VALID,91.143,VALID,0,VALID,22.603,VALID,44,VALID,0,
2009-06-27, 02:28:04,VALID,1008.59,VALID,0,VALID,91.1583,VALID,0,VALID,22.5835,VALID,44,VALID,0,
2009-06-27, 02:29:04,VALID,1008.58,VALID,0,VALID,91.1735,VALID,0,VALID,22.564,VALID,47,VALID,0,
2009-06-27, 02:30:04,VALID,1008.6,VALID,0,VALID,91.1659,VALID,0.105969,VALID,22.5623,VALID,71,VALID,0,
2009-06-27, 02:31:04,VALID,1008.58,VALID,0,VALID,91.1964,VALID,0.105969,VALID,22.5429,VALID,76,VALID,0,
2009-06-27, 02:32:04,VALID,1008.59,VALID,0,VALID,91.204,VALID,0.105969,VALID,22.5429,VALID,76,VALID,0,
2009-06-27, 02:33:04,VALID,1008.54,VALID,0,VALID,91.204,VALID,0,VALID,22.564,VALID,76,VALID,0,
2009-06-27, 02:34:04,VALID,1008.57,VALID,0,VALID,91.2421,VALID,0,VALID,22.5234,VALID,83,VALID,0,
2009-06-27, 02:35:04,VALID,1008.56,VALID,0,VALID,91.265,VALID,0,VALID,22.5234,VALID,83,VALID,0,
2009-06-27, 02:36:04,VALID,1008.56,VALID,0,VALID,91.265,VALID,0.105969,VALID,22.5446,VALID,83,VALID,0,
2009-06-27, 02:37:04,VALID,1008.6,VALID,0,VALID,91.2879,VALID,0,VALID,22.5234,VALID,83,VALID,0.207031,
2009-06-27, 02:38:04,VALID,1008.61,VALID,0,VALID,91.2879,VALID,0.105969,VALID,22.5234,VALID,83,VALID,0.237109,
2009-06-27, 02:39:04,VALID,1008.63,VALID,0,VALID,91.2955,VALID,0,VALID,22.5234,VALID,83,VALID,0.223828,
2009-06-27, 02:40:04,VALID,1008.6,VALID,0,VALID,91.3108,VALID,0,VALID,22.5446,VALID,83,VALID,0.324609,
2009-06-27, 02:41:04,VALID,1008.62,VALID,0,VALID,91.326,VALID,0,VALID,22.5234,VALID,83,VALID,0.370703,
2009-06-27, 02:42:04,VALID,1008.62,VALID,0,VALID,91.3413,VALID,0.105969,VALID,22.5234,VALID,83,VALID,0,
2009-06-27, 02:43:04,VALID,1008.6,VALID,0,VALID,91.3413,VALID,0.105969,VALID,22.5234,VALID,83,VALID,0,
2009-06-27, 02:44:04,VALID,1008.61,VALID,0,VALID,91.3489,VALID,0,VALID,22.5039,VALID,83,VALID,0,
2009-06-27, 02:45:04,VALID,1008.62,VALID,0,VALID,91.3642,VALID,0,VALID,22.5268,VALID,83,VALID,0,
2009-06-27, 02:46:04,VALID,1008.6,VALID,0,VALID,91.3718,VALID,0,VALID,22.5251,VALID,83,VALID,0,
2009-06-27, 02:47:04,VALID,1008.6,VALID,0,VALID,91.3947,VALID,0,VALID,22.5251,VALID,83,VALID,0,
2009-06-27, 02:48:04,VALID,1008.62,VALID,0,VALID,91.387,VALID,0,VALID,22.5056,VALID,83,VALID,0,
2009-06-27, 02:49:04,VALID,1008.6,VALID,0,VALID,91.3794,VALID,0,VALID,22.5251,VALID,83,VALID,0,
2009-06-27, 02:50:04,VALID,1008.63,VALID,0,VALID,91.4099,VALID,0,VALID,22.5056,VALID,83,VALID,0.267969,
2009-06-27, 02:51:04,VALID,1008.61,VALID,0,VALID,91.4404,VALID,0,VALID,22.5251,VALID,82,VALID,0.270312,
2009-06-27, 02:52:04,VALID,1008.63,VALID,0,VALID,91.4328,VALID,0,VALID,22.5056,VALID,82,VALID,0,
2009-06-27, 02:53:04,VALID,1008.61,VALID,0,VALID,91.448,VALID,0,VALID,22.5056,VALID,82,VALID,0,
2009-06-27, 02:54:04,VALID,1008.6,VALID,0,VALID,91.448,VALID,0,VALID,22.5268,VALID,82,VALID,0,
2009-06-27, 02:55:04,VALID,1008.59,VALID,0,VALID,91.4633,VALID,0,VALID,22.5056,VALID,82,VALID,0,
2009-06-27, 02:56:04,VALID,1008.59,VALID,0,VALID,91.4633,VALID,0,VALID,22.5251,VALID,82,VALID,0,
2009-06-27, 02:57:04,VALID,1008.58,VALID,0,VALID,91.4633,VALID,0,VALID,22.4861,VALID,82,VALID,0,
2009-06-27, 02:58:04,VALID,1008.56,VALID,0,VALID,91.448,VALID,0,VALID,22.4861,VALID,82,VALID,0,
2009-06-27, 02:59:04,VALID,1008.56,VALID,0,VALID,91.4557,VALID,0,VALID,22.4861,VALID,82,VALID,0,
2009-06-27, 03:00:04,VALID,1008.55,VALID,0,VALID,91.4785,VALID,0,VALID,22.4844,VALID,82,VALID,0,
2009-06-27, 03:01:04,VALID,1008.57,VALID,0,VALID,91.4709,VALID,0.105969,VALID,22.4844,VALID,82,VALID,0,
2009-06-27, 03:02:04,VALID,1008.58,VALID,0,VALID,91.4785,VALID,0,VALID,22.465,VALID,82,VALID,0,
2009-06-27, 03:03:04,VALID,1008.58,VALID,0,VALID,91.4633,VALID,0.105969,VALID,22.465,VALID,82,VALID,0,
2009-06-27, 03:04:04,VALID,1008.55,VALID,0,VALID,91.5014,VALID,0,VALID,22.4844,VALID,82,VALID,0.0375,
2009-06-27, 03:05:04,VALID,1008.54,VALID,0,VALID,91.4785,VALID,0,VALID,22.4861,VALID,82,VALID,0,
2009-06-27, 03:06:04,VALID,1008.53,VALID,0,VALID,91.4938,VALID,0,VALID,22.4844,VALID,82,VALID,0.000390625,
2009-06-27, 03:07:04,VALID,1008.56,VALID,0,VALID,91.509,VALID,0,VALID,22.465,VALID,82,VALID,0.11875,
2009-06-27, 03:08:04,VALID,1008.52,VALID,0,VALID,91.5167,VALID,0,VALID,22.4861,VALID,82,VALID,0,
2009-06-27, 03:09:04,VALID,1008.54,VALID,0,VALID,91.509,VALID,0,VALID,22.4861,VALID,82,VALID,0,
2009-06-27, 03:10:04,VALID,1008.51,VALID,0,VALID,91.509,VALID,0.105969,VALID,22.465,VALID,82,VALID,0.230469,
2009-06-27, 03:11:04,VALID,1008.52,VALID,0,VALID,91.5319,VALID,0,VALID,22.465,VALID,82,VALID,0,
2009-06-27, 03:12:04,VALID,1008.48,VALID,0,VALID,91.509,VALID,0,VALID,22.4455,VALID,82,VALID,0.124219,
2009-06-27, 03:13:04,VALID,1008.51,VALID,0,VALID,91.5319,VALID,0.105969,VALID,22.426,VALID,82,VALID,0.207031,
2009-06-27, 03:14:04,VALID,1008.53,VALID,0,VALID,91.5167,VALID,0.105969,VALID,22.426,VALID,82,VALID,0.146875,
2009-06-27, 03:15:04,VALID,1008.53,VALID,0,VALID,91.5167,VALID,0.105969,VALID,22.4455,VALID,82,VALID,0,
2009-06-27, 03:16:04,VALID,1008.56,VALID,0,VALID,91.5319,VALID,0,VALID,22.4667,VALID,82,VALID,0,
2009-06-27, 03:17:04,VALID,1008.56,VALID,0,VALID,91.5395,VALID,0,VALID,22.465,VALID,82,VALID,0,
2009-06-27, 03:18:04,VALID,1008.58,VALID,0,VALID,91.5548,VALID,0.105969,VALID,22.4065,VALID,83,VALID,0.452734,
2009-06-27, 03:19:04,VALID,1008.57,VALID,0,VALID,91.5548,VALID,0.105969,VALID,22.387,VALID,117,VALID,0.552734,
2009-06-27, 03:20:04,VALID,1008.57,VALID,0,VALID,91.5395,VALID,0.105969,VALID,22.387,VALID,125,VALID,0.577344,
2009-06-27, 03:21:04,VALID,1008.56,VALID,0,VALID,91.5319,VALID,0.105969,VALID,22.3676,VALID,132,VALID,0.654297,
2009-06-27, 03:22:04,VALID,1008.57,VALID,0,VALID,91.5548,VALID,0.105969,VALID,22.3481,VALID,162,VALID,0.567578,
2009-06-27, 03:23:04,VALID,1008.58,VALID,0,VALID,91.57,VALID,0.105969,VALID,22.3676,VALID,162,VALID,0.499219,
2009-06-27, 03:24:04,VALID,1008.58,VALID,0,VALID,91.5853,VALID,0.105969,VALID,22.3676,VALID,162,VALID,0.326953,
2009-06-27, 03:25:04,VALID,1008.62,VALID,0,VALID,91.5777,VALID,0,VALID,22.387,VALID,162,VALID,0.153516,
2009-06-27, 03:26:04,VALID,1008.63,VALID,0,VALID,91.5853,VALID,0,VALID,22.4277,VALID,162,VALID,0.245703,
2009-06-27, 03:27:04,VALID,1008.65,VALID,0,VALID,91.6158,VALID,0.105969,VALID,22.4065,VALID,162,VALID,0.233594,
2009-06-27, 03:28:04,VALID,1008.63,VALID,0,VALID,91.6158,VALID,0.105969,VALID,22.4065,VALID,162,VALID,0.207031,
2009-06-27, 03:29:04,VALID,1008.67,VALID,0,VALID,91.6082,VALID,0.105969,VALID,22.4048,VALID,162,VALID,0.133594,
2009-06-27, 03:30:04,VALID,1008.66,VALID,0,VALID,91.6311,VALID,0,VALID,22.4472,VALID,162,VALID,0,
2009-06-27, 03:31:04,VALID,1008.68,VALID,0,VALID,91.6311,VALID,0,VALID,22.4472,VALID,162,VALID,0,
2009-06-27, 03:32:04,VALID,1008.71,VALID,0,VALID,91.6539,VALID,0,VALID,22.4472,VALID,162,VALID,0,
2009-06-27, 03:33:04,VALID,1008.74,VALID,0,VALID,91.6311,VALID,0,VALID,22.426,VALID,162,VALID,0,
2009-06-27, 03:34:04,VALID,1008.78,VALID,0,VALID,91.6387,VALID,0,VALID,22.4472,VALID,162,VALID,0,
2009-06-27, 03:35:04,VALID,1008.8,VALID,0,VALID,91.6311,VALID,0,VALID,22.426,VALID,162,VALID,0.328906,
2009-06-27, 03:36:04,VALID,1008.83,VALID,0,VALID,91.6463,VALID,0,VALID,22.4667,VALID,162,VALID,0.389844,
2009-06-27, 03:37:04,VALID,1008.83,VALID,0,VALID,91.6463,VALID,0,VALID,22.4667,VALID,162,VALID,0.296484,
2009-06-27, 03:38:04,VALID,1008.86,VALID,0,VALID,91.6616,VALID,0,VALID,22.4667,VALID,162,VALID,0.215625,
2009-06-27, 03:39:04,VALID,1008.84,VALID,0,VALID,91.6539,VALID,0,VALID,22.4667,VALID,162,VALID,0.278516,
2009-06-27, 03:40:04,VALID,1008.88,VALID,0,VALID,91.6616,VALID,0,VALID,22.4667,VALID,162,VALID,0.116016,
2009-06-27, 03:41:04,VALID,1008.88,VALID,0,VALID,91.6616,VALID,0,VALID,22.4455,VALID,162,VALID,0,
2009-06-27, 03:42:04,VALID,1008.9,VALID,0,VALID,91.6616,VALID,0,VALID,22.4472,VALID,162,VALID,0,
2009-06-27, 03:43:04,VALID,1008.88,VALID,0,VALID,91.6692,VALID,0,VALID,22.4667,VALID,162,VALID,0,
2009-06-27, 03:44:04,VALID,1008.9,VALID,0,VALID,91.6616,VALID,0,VALID,22.4861,VALID,162,VALID,0,
2009-06-27, 03:45:04,VALID,1008.92,VALID,0,VALID,91.6768,VALID,0.105969,VALID,22.465,VALID,162,VALID,0,
2009-06-27, 03:46:04,VALID,1008.91,VALID,0,VALID,91.6692,VALID,0.105969,VALID,22.465,VALID,162,VALID,0,
2009-06-27, 03:47:04,VALID,1008.9,VALID,0,VALID,91.6539,VALID,0.105969,VALID,22.4844,VALID,162,VALID,0,
2009-06-27, 03:48:04,VALID,1008.89,VALID,0,VALID,91.6616,VALID,0.105969,VALID,22.4827,VALID,162,VALID,0,
2009-06-27, 03:49:04,VALID,1008.89,VALID,0,VALID,91.6692,VALID,0.105969,VALID,22.4844,VALID,162,VALID,0,